Time,TemperatureF,DewpointF,PressureIn,WindDirection,WindDirectionDegrees,WindSpeedMPH,WindSpeedGustMPH,Humidity,HourlyPrecipIn,Conditions,Clouds,dailyrainin,SoftwareType,DateUTC
2013-02-27 00:01:00,12.0,8.0,30.10,North,-999,-999.0,-999.0,84,-99.99,,,-99.99,,2013-02-27 07:01:00,
2013-02-27 00:12:00,9.0,5.0,30.10,North,-999,-999.0,-999.0,84,-99.99,,,-99.99,,2013-02-27 07:12:00,
2013-02-27 00:21:00,9.0,5.0,30.10,North,-999,-999.0,-999.0,84,-99.99,,,-99.99,,2013-02-27 07:21:00,
2013-02-27 00:32:00,9.0,5.0,30.10,North,-999,-999.0,-999.0,84,-99.99,,,-99.99,,2013-02-27 07:32:00,
2013-02-27 00:42:00,7.0,3.0,30.11,North,-999,-999.0,-999.0,83,-99.99,,,-99.99,,2013-02-27 07:42:00,
2013-02-27 00:51:00,7.0,3.0,30.11,North,-999,-999.0,-999.0,83,-99.99,,,-99.99,,2013-02-27 07:51:00,
2013-02-27 01:01:00,7.0,3.0,30.11,North,-999,-999.0,-999.0,83,-99.99,,,-99.99,,2013-02-27 08:01:00,
2013-02-27 01:11:00,7.0,2.0,30.12,North,-999,-999.0,-999.0,82,-99.99,,,-99.99,,2013-02-27 08:11:00,
2013-02-27 01:21:00,7.0,2.0,30.12,North,-999,-999.0,-999.0,82,-99.99,,,-99.99,,2013-02-27 08:21:00,
2013-02-27 01:32:00,7.0,2.0,30.12,North,-999,-999.0,-999.0,82,-99.99,,,-99.99,,2013-02-27 08:32:00,
2013-02-27 01:42:00,9.0,5.0,30.13,North,-999,-999.0,-999.0,84,-99.99,,,-99.99,,2013-02-27 08:42:00,
2013-02-27 01:52:00,9.0,5.0,30.13,North,-999,-999.0,-999.0,84,-99.99,,,-99.99,,2013-02-27 08:52:00,
2013-02-27 02:02:00,9.0,5.0,30.13,North,-999,-999.0,-999.0,84,-99.99,,,-99.99,,2013-02-27 09:02:00,
2013-02-27 02:12:00,9.0,5.0,30.13,North,-999,-999.0,-999.0,84,-99.99,,,-99.99,,2013-02-27 09:12:00,
2013-02-27 02:21:00,8.0,4.0,30.13,North,-999,-999.0,-999.0,84,-99.99,,,-99.99,,2013-02-27 09:21:00,
2013-02-27 02:32:00,8.0,4.0,30.13,North,-999,-999.0,-999.0,84,-99.99,,,-99.99,,2013-02-27 09:32:00,
2013-02-27 02:41:00,8.0,5.0,30.13,North,-999,-999.0,-999.0,85,-99.99,,,-99.99,,2013-02-27 09:41:00,
2013-02-27 02:51:00,8.0,5.0,30.13,North,-999,-999.0,-999.0,85,-99.99,,,-99.99,,2013-02-27 09:51:00,
2013-02-27 03:01:00,8.0,5.0,30.13,North,-999,-999.0,-999.0,85,-99.99,,,-99.99,,2013-02-27 10:01:00,
2013-02-27 03:12:00,9.0,5.0,30.12,North,-999,-999.0,-999.0,83,-99.99,,,-99.99,,2013-02-27 10:12:00,
2013-02-27 03:21:00,9.0,5.0,30.12,North,-999,-999.0,-999.0,83,-99.99,,,-99.99,,2013-02-27 10:21:00,
2013-02-27 03:32:00,9.0,5.0,30.12,North,-999,-999.0,-999.0,83,-99.99,,,-99.99,,2013-02-27 10:32:00,
2013-02-27 03:42:00,8.0,4.0,30.12,North,-999,-999.0,-999.0,84,-99.99,,,-99.99,,2013-02-27 10:42:00,
2013-02-27 03:52:00,8.0,4.0,30.12,North,-999,-999.0,-999.0,84,-99.99,,,-99.99,,2013-02-27 10:52:00,
2013-02-27 04:02:00,8.0,4.0,30.12,North,-999,-999.0,-999.0,84,-99.99,,,-99.99,,2013-02-27 11:02:00,
2013-02-27 04:12:00,8.0,4.0,30.12,North,-999,-999.0,-999.0,84,-99.99,,,-99.99,,2013-02-27 11:12:00,
2013-02-27 04:22:00,10.0,3.0,30.12,North,-999,-999.0,-999.0,74,-99.99,,,-99.99,,2013-02-27 11:22:00,
2013-02-27 04:32:00,10.0,3.0,30.12,North,-999,-999.0,-999.0,74,-99.99,,,-99.99,,2013-02-27 11:32:00,
2013-02-27 04:42:00,9.0,1.0,30.13,North,-999,-999.0,-999.0,69,-99.99,,,-99.99,,2013-02-27 11:42:00,
2013-02-27 04:52:00,9.0,1.0,30.13,North,-999,-999.0,-999.0,69,-99.99,,,-99.99,,2013-02-27 11:52:00,
2013-02-27 05:02:00,9.0,1.0,30.13,North,-999,-999.0,-999.0,69,-99.99,,,-99.99,,2013-02-27 12:02:00,
2013-02-27 05:13:00,7.0,0.0,30.14,North,-999,-999.0,-999.0,73,-99.99,,,-99.99,,2013-02-27 12:13:00,
2013-02-27 05:22:00,7.0,0.0,30.14,North,-999,-999.0,-999.0,73,-99.99,,,-99.99,,2013-02-27 12:22:00,
2013-02-27 05:32:00,7.0,0.0,30.14,North,-999,-999.0,-999.0,73,-99.99,,,-99.99,,2013-02-27 12:32:00,
2013-02-27 05:42:00,6.0,0.0,30.15,North,-999,-999.0,-999.0,74,-99.99,,,-99.99,,2013-02-27 12:42:00,
2013-02-27 05:52:00,6.0,0.0,30.15,North,-999,-999.0,-999.0,74,-99.99,,,-99.99,,2013-02-27 12:52:00,
2013-02-27 06:02:00,6.0,0.0,30.15,North,-999,-999.0,-999.0,74,-99.99,,,-99.99,,2013-02-27 13:02:00,
2013-02-27 06:11:00,5.0,1.0,30.16,North,-999,-999.0,-999.0,85,-99.99,,,-99.99,,2013-02-27 13:11:00,
2013-02-27 06:22:00,5.0,1.0,30.16,North,-999,-999.0,-999.0,85,-99.99,,,-99.99,,2013-02-27 13:22:00,
2013-02-27 06:32:00,5.0,1.0,30.16,North,-999,-999.0,-999.0,85,-99.99,,,-99.99,,2013-02-27 13:32:00,
2013-02-27 06:42:00,2.0,-2.0,30.16,North,-999,-999.0,-999.0,82,-99.99,,,-99.99,,2013-02-27 13:42:00,
2013-02-27 06:52:00,2.0,-2.0,30.16,North,-999,-999.0,-999.0,82,-99.99,,,-99.99,,2013-02-27 13:52:00,
2013-02-27 07:02:00,2.0,-2.0,30.16,North,-999,-999.0,-999.0,82,-99.99,,,-99.99,,2013-02-27 14:02:00,
2013-02-27 07:12:00,2.0,-2.0,30.17,North,-999,-999.0,-999.0,81,-99.99,,,-99.99,,2013-02-27 14:12:00,
2013-02-27 07:21:00,2.0,-2.0,30.17,North,-999,-999.0,-999.0,81,-99.99,,,-99.99,,2013-02-27 14:21:00,
2013-02-27 07:32:00,2.0,-2.0,30.17,North,-999,-999.0,-999.0,81,-99.99,,,-99.99,,2013-02-27 14:32:00,
2013-02-27 07:42:00,2.0,-2.0,30.17,North,-999,-999.0,-999.0,81,-99.99,,,-99.99,,2013-02-27 14:42:00,
2013-02-27 07:52:00,6.0,0.0,30.18,North,-999,-999.0,-999.0,76,-99.99,,,-99.99,,2013-02-27 14:52:00,
2013-02-27 08:02:00,6.0,0.0,30.18,North,-999,-999.0,-999.0,76,-99.99,,,-99.99,,2013-02-27 15:02:00,
2013-02-27 08:12:00,4.0,-2.0,30.18,North,-999,-999.0,-999.0,75,-99.99,,,-99.99,,2013-02-27 15:12:00,
2013-02-27 08:22:00,4.0,-2.0,30.18,North,-999,-999.0,-999.0,75,-99.99,,,-99.99,,2013-02-27 15:22:00,
2013-02-27 08:32:00,4.0,-2.0,30.18,North,-999,-999.0,-999.0,75,-99.99,,,-99.99,,2013-02-27 15:32:00,
2013-02-27 08:42:00,4.0,-2.0,30.18,North,-999,-999.0,-999.0,75,-99.99,,,-99.99,,2013-02-27 15:42:00,
2013-02-27 08:52:00,6.0,0.0,30.19,North,-999,-999.0,-999.0,75,-99.99,,,-99.99,,2013-02-27 15:52:00,
2013-02-27 09:01:00,6.0,0.0,30.19,North,-999,-999.0,-999.0,75,-99.99,,,-99.99,,2013-02-27 16:01:00,
2013-02-27 09:12:00,7.0,0.0,30.19,North,-999,-999.0,-999.0,72,-99.99,,,-99.99,,2013-02-27 16:12:00,
2013-02-27 09:22:00,7.0,0.0,30.19,North,-999,-999.0,-999.0,72,-99.99,,,-99.99,,2013-02-27 16:22:00,
2013-02-27 09:32:00,7.0,0.0,30.19,North,-999,-999.0,-999.0,72,-99.99,,,-99.99,,2013-02-27 16:32:00,
2013-02-27 09:42:00,13.0,3.0,30.20,North,-999,-999.0,-999.0,63,-99.99,,,-99.99,,2013-02-27 16:42:00,
2013-02-27 09:52:00,13.0,3.0,30.20,North,-999,-999.0,-999.0,63,-99.99,,,-99.99,,2013-02-27 16:52:00,
2013-02-27 10:02:00,13.0,3.0,30.20,North,-999,-999.0,-999.0,63,-99.99,,,-99.99,,2013-02-27 17:02:00,
2013-02-27 10:11:00,13.0,3.0,30.20,North,-999,-999.0,-999.0,63,-99.99,,,-99.99,,2013-02-27 17:11:00,
2013-02-27 10:21:00,12.0,3.0,30.19,North,-999,-999.0,-999.0,65,-99.99,,,-99.99,,2013-02-27 17:21:00,
2013-02-27 10:32:00,12.0,3.0,30.19,North,-999,-999.0,-999.0,65,-99.99,,,-99.99,,2013-02-27 17:32:00,
2013-02-27 10:42:00,15.0,3.0,30.18,North,-999,-999.0,-999.0,59,-99.99,,,-99.99,,2013-02-27 17:42:00,
2013-02-27 10:52:00,15.0,3.0,30.18,North,-999,-999.0,-999.0,59,-99.99,,,-99.99,,2013-02-27 17:52:00,
2013-02-27 11:02:00,15.0,3.0,30.18,North,-999,-999.0,-999.0,59,-99.99,,,-99.99,,2013-02-27 18:02:00,
2013-02-27 11:11:00,18.0,5.0,30.18,North,-999,-999.0,-999.0,55,-99.99,,,-99.99,,2013-02-27 18:11:00,
2013-02-27 11:22:00,18.0,5.0,30.18,North,-999,-999.0,-999.0,55,-99.99,,,-99.99,,2013-02-27 18:22:00,
2013-02-27 11:32:00,18.0,5.0,30.18,North,-999,-999.0,-999.0,55,-99.99,,,-99.99,,2013-02-27 18:32:00,
2013-02-27 11:42:00,19.0,7.0,30.18,North,-999,-999.0,-999.0,58,-99.99,,,-99.99,,2013-02-27 18:42:00,
2013-02-27 11:51:00,19.0,7.0,30.18,North,-999,-999.0,-999.0,58,-99.99,,,-99.99,,2013-02-27 18:51:00,
2013-02-27 12:01:00,19.0,7.0,30.18,North,-999,-999.0,-999.0,58,-99.99,,,-99.99,,2013-02-27 19:01:00,
2013-02-27 12:12:00,19.0,6.0,30.18,North,-999,-999.0,-999.0,55,-99.99,,,-99.99,,2013-02-27 19:12:00,
2013-02-27 12:21:00,19.0,6.0,30.18,North,-999,-999.0,-999.0,55,-99.99,,,-99.99,,2013-02-27 19:21:00,
2013-02-27 12:32:00,19.0,6.0,30.18,North,-999,-999.0,-999.0,55,-99.99,,,-99.99,,2013-02-27 19:32:00,
2013-02-27 12:42:00,19.0,8.0,30.18,North,-999,-999.0,-999.0,61,-99.99,,,-99.99,,2013-02-27 19:42:00,
2013-02-27 12:52:00,19.0,8.0,30.18,North,-999,-999.0,-999.0,61,-99.99,,,-99.99,,2013-02-27 19:52:00,
2013-02-27 13:01:00,19.0,8.0,30.18,North,-999,-999.0,-999.0,61,-99.99,,,-99.99,,2013-02-27 20:01:00,
2013-02-27 13:12:00,19.0,8.0,30.18,North,-999,-999.0,-999.0,61,-99.99,,,-99.99,,2013-02-27 20:12:00,
2013-02-27 13:21:00,18.0,8.0,30.17,North,-999,-999.0,-999.0,64,-99.99,,,-99.99,,2013-02-27 20:21:00,
2013-02-27 13:32:00,18.0,8.0,30.17,North,-999,-999.0,-999.0,64,-99.99,,,-99.99,,2013-02-27 20:32:00,
2013-02-27 13:42:00,17.0,10.0,30.16,North,-999,-999.0,-999.0,72,-99.99,,,-99.99,,2013-02-27 20:42:00,
2013-02-27 13:52:00,17.0,10.0,30.16,North,-999,-999.0,-999.0,72,-99.99,,,-99.99,,2013-02-27 20:52:00,
2013-02-27 14:02:00,17.0,10.0,30.16,North,-999,-999.0,-999.0,72,-99.99,,,-99.99,,2013-02-27 21:02:00,
2013-02-27 14:11:00,18.0,11.0,30.16,North,-999,-999.0,-999.0,70,-99.99,,,-99.99,,2013-02-27 21:11:00,
2013-02-27 14:21:00,18.0,11.0,30.16,North,-999,-999.0,-999.0,70,-99.99,,,-99.99,,2013-02-27 21:21:00,
2013-02-27 14:32:00,18.0,11.0,30.16,North,-999,-999.0,-999.0,70,-99.99,,,-99.99,,2013-02-27 21:32:00,
2013-02-27 14:42:00,18.0,11.0,30.16,North,-999,-999.0,-999.0,70,-99.99,,,-99.99,,2013-02-27 21:42:00,
2013-02-27 14:51:00,21.0,11.0,30.16,North,-999,-999.0,-999.0,63,-99.99,,,-99.99,,2013-02-27 21:51:00,
2013-02-27 15:01:00,21.0,11.0,30.16,North,-999,-999.0,-999.0,63,-99.99,,,-99.99,,2013-02-27 22:01:00,
2013-02-27 15:11:00,25.0,11.0,30.16,North,-999,-999.0,-999.0,55,-99.99,,,-99.99,,2013-02-27 22:11:00,
2013-02-27 15:21:00,25.0,11.0,30.16,North,-999,-999.0,-999.0,55,-99.99,,,-99.99,,2013-02-27 22:21:00,
2013-02-27 15:31:00,25.0,11.0,30.16,North,-999,-999.0,-999.0,55,-99.99,,,-99.99,,2013-02-27 22:31:00,
2013-02-27 15:42:00,22.0,10.0,30.16,North,-999,-999.0,-999.0,60,-99.99,,,-99.99,,2013-02-27 22:42:00,
2013-02-27 15:51:00,22.0,10.0,30.16,North,-999,-999.0,-999.0,60,-99.99,,,-99.99,,2013-02-27 22:51:00,
2013-02-27 16:01:00,22.0,10.0,30.16,North,-999,-999.0,-999.0,60,-99.99,,,-99.99,,2013-02-27 23:01:00,
2013-02-27 16:11:00,22.0,10.0,30.16,North,-999,-999.0,-999.0,60,-99.99,,,-99.99,,2013-02-27 23:11:00,
2013-02-27 16:21:00,20.0,9.0,30.17,North,-999,-999.0,-999.0,61,-99.99,,,-99.99,,2013-02-27 23:21:00,
2013-02-27 16:30:00,19.0,8.0,30.16,North,-999,-999.0,-999.0,62,-99.99,,,-99.99,,2013-02-27 23:30:00,
2013-02-27 16:32:00,20.0,9.0,30.17,North,-999,-999.0,-999.0,61,-99.99,,,-99.99,,2013-02-27 23:32:00,
2013-02-27 16:42:00,20.0,9.0,30.17,North,-999,-999.0,-999.0,61,-99.99,,,-99.99,,2013-02-27 23:42:00,
2013-02-27 16:52:00,19.0,8.0,30.16,North,-999,-999.0,-999.0,62,-99.99,,,-99.99,,2013-02-27 23:52:00,
2013-02-27 17:02:00,19.0,8.0,30.16,North,-999,-999.0,-999.0,62,-99.99,,,-99.99,,2013-02-28 00:02:00,
2013-02-27 17:12:00,19.0,8.0,30.16,North,-999,-999.0,-999.0,62,-99.99,,,-99.99,,2013-02-28 00:12:00,
2013-02-27 17:21:00,19.0,8.0,30.16,North,-999,-999.0,-999.0,62,-99.99,,,-99.99,,2013-02-28 00:21:00,
2013-02-27 17:42:00,14.0,5.0,30.17,North,-999,-999.0,-999.0,66,-99.99,,,-99.99,,2013-02-28 00:42:00,
2013-02-27 17:52:00,14.0,5.0,30.17,North,-999,-999.0,-999.0,66,-99.99,,,-99.99,,2013-02-28 00:52:00,
2013-02-27 18:01:00,14.0,5.0,30.17,North,-999,-999.0,-999.0,66,-99.99,,,-99.99,,2013-02-28 01:01:00,
2013-02-27 18:11:00,11.0,3.0,30.17,North,-999,-999.0,-999.0,69,-99.99,,,-99.99,,2013-02-28 01:11:00,
2013-02-27 18:21:00,11.0,3.0,30.17,North,-999,-999.0,-999.0,69,-99.99,,,-99.99,,2013-02-28 01:21:00,
2013-02-27 18:32:00,11.0,3.0,30.17,North,-999,-999.0,-999.0,69,-99.99,,,-99.99,,2013-02-28 01:32:00,
2013-02-27 18:42:00,11.0,3.0,30.17,North,-999,-999.0,-999.0,69,-99.99,,,-99.99,,2013-02-28 01:42:00,
2013-02-27 18:52:00,10.0,2.0,30.18,North,-999,-999.0,-999.0,70,-99.99,,,-99.99,,2013-02-28 01:52:00,
2013-02-27 19:01:00,10.0,2.0,30.18,North,-999,-999.0,-999.0,70,-99.99,,,-99.99,,2013-02-28 02:01:00,
2013-02-27 19:11:00,12.0,2.0,30.19,North,-999,-999.0,-999.0,62,-99.99,,,-99.99,,2013-02-28 02:11:00,
2013-02-27 19:22:00,12.0,2.0,30.19,North,-999,-999.0,-999.0,62,-99.99,,,-99.99,,2013-02-28 02:22:00,
2013-02-27 19:32:00,12.0,2.0,30.19,North,-999,-999.0,-999.0,62,-99.99,,,-99.99,,2013-02-28 02:32:00,
2013-02-27 19:41:00,12.0,2.0,30.19,North,-999,-999.0,-999.0,62,-99.99,,,-99.99,,2013-02-28 02:41:00,
2013-02-27 19:51:00,12.0,2.0,30.19,North,-999,-999.0,-999.0,62,-99.99,,,-99.99,,2013-02-28 02:51:00,
2013-02-27 20:01:00,6.0,0.0,30.19,North,-999,-999.0,-999.0,74,-99.99,,,-99.99,,2013-02-28 03:01:00,
2013-02-27 20:11:00,10.0,0.0,30.19,North,-999,-999.0,-999.0,61,-99.99,,,-99.99,,2013-02-28 03:11:00,
2013-02-27 20:21:00,10.0,0.0,30.19,North,-999,-999.0,-999.0,61,-99.99,,,-99.99,,2013-02-28 03:21:00,
2013-02-27 20:32:00,10.0,0.0,30.19,North,-999,-999.0,-999.0,61,-99.99,,,-99.99,,2013-02-28 03:32:00,
2013-02-27 20:42:00,6.0,-1.0,30.19,North,-999,-999.0,-999.0,71,-99.99,,,-99.99,,2013-02-28 03:42:00,
2013-02-27 20:52:00,6.0,-1.0,30.19,North,-999,-999.0,-999.0,71,-99.99,,,-99.99,,2013-02-28 03:52:00,
2013-02-27 21:02:00,6.0,-1.0,30.19,North,-999,-999.0,-999.0,71,-99.99,,,-99.99,,2013-02-28 04:02:00,
2013-02-27 21:11:00,6.0,-1.0,30.19,North,-999,-999.0,-999.0,73,-99.99,,,-99.99,,2013-02-28 04:11:00,
2013-02-27 21:21:00,6.0,-1.0,30.19,North,-999,-999.0,-999.0,73,-99.99,,,-99.99,,2013-02-28 04:21:00,
2013-02-27 21:32:00,6.0,-1.0,30.19,North,-999,-999.0,-999.0,73,-99.99,,,-99.99,,2013-02-28 04:32:00,
2013-02-27 21:42:00,10.0,-1.0,30.19,North,-999,-999.0,-999.0,61,-99.99,,,-99.99,,2013-02-28 04:42:00,
2013-02-27 21:51:00,10.0,-1.0,30.19,North,-999,-999.0,-999.0,61,-99.99,,,-99.99,,2013-02-28 04:51:00,
2013-02-27 22:01:00,10.0,-1.0,30.19,North,-999,-999.0,-999.0,61,-99.99,,,-99.99,,2013-02-28 05:01:00,
2013-02-27 22:11:00,11.0,0.0,30.19,North,-999,-999.0,-999.0,59,-99.99,,,-99.99,,2013-02-28 05:11:00,
2013-02-27 22:22:00,11.0,0.0,30.19,North,-999,-999.0,-999.0,59,-99.99,,,-99.99,,2013-02-28 05:22:00,
2013-02-27 22:32:00,11.0,0.0,30.19,North,-999,-999.0,-999.0,59,-99.99,,,-99.99,,2013-02-28 05:32:00,
2013-02-27 22:43:00,9.0,0.0,30.20,North,-999,-999.0,-999.0,63,-99.99,,,-99.99,,2013-02-28 05:43:00,
2013-02-27 22:52:00,9.0,0.0,30.20,North,-999,-999.0,-999.0,63,-99.99,,,-99.99,,2013-02-28 05:52:00,
2013-02-27 23:01:00,9.0,0.0,30.20,North,-999,-999.0,-999.0,63,-99.99,,,-99.99,,2013-02-28 06:01:00,
2013-02-27 23:11:00,12.0,1.0,30.20,North,-999,-999.0,-999.0,60,-99.99,,,-99.99,,2013-02-28 06:11:00,
2013-02-27 23:22:00,12.0,1.0,30.20,North,-999,-999.0,-999.0,60,-99.99,,,-99.99,,2013-02-28 06:22:00,
2013-02-27 23:32:00,12.0,1.0,30.20,North,-999,-999.0,-999.0,60,-99.99,,,-99.99,,2013-02-28 06:32:00,
2013-02-27 23:42:00,8.0,-1.0,30.20,North,-999,-999.0,-999.0,65,-99.99,,,-99.99,,2013-02-28 06:42:00,
2013-02-27 23:51:00,8.0,-1.0,30.20,North,-999,-999.0,-999.0,65,-99.99,,,-99.99,,2013-02-28 06:51:00,